| time (UTC) | temp C | wind direction | speed KPH | gust KPH | rain 1hr cm | rain 24hr cm | rain mn cm | humidity % | barometer mb |
| 20260507153040 | 15 | 281 | 17.7 | 25.7 | 0.00 | 0.84 | 0.00 | 29 | 1015.6 |
| 20260507151531 | 14 | 261 | 14.5 | 24.1 | 0.00 | 0.84 | 0.00 | 33 | 1015.8 |
| 20260507150029 | 13 | 263 | 20.9 | 30.6 | 0.00 | 0.84 | 0.00 | 39 | 1016.0 |
| 20260507144531 | 11 | 261 | 20.9 | 27.4 | 0.00 | 0.86 | 0.00 | 47 | 1016.0 |
| 20260507143018 | 10 | 251 | 17.7 | 24.1 | 0.00 | 0.86 | 0.00 | 52 | 1016.1 |
| 20260507141518 | 8 | 252 | 16.1 | 25.7 | 0.00 | 0.86 | 0.00 | 56 | 1016.2 |
| 20260507140010 | 8 | 250 | 19.3 | 24.1 | 0.00 | 0.86 | 0.00 | 58 | 1016.4 |
| 20260507134506 | 7 | 256 | 17.7 | 25.7 | 0.00 | 0.86 | 0.00 | 60 | 1016.6 |
| 20260507133002 | 5 | 248 | 14.5 | 19.3 | 0.00 | 0.86 | 0.00 | 69 | 1016.5 |
| 20260507131558 | 2 | 239 | 8.0 | 19.3 | 0.00 | 0.86 | 0.00 | 78 | 1016.4 |
| 20260507130105 | 1 | 248 | 6.4 | 11.3 | 0.00 | 0.86 | 0.00 | 78 | 1016.5 |
| 20260507124616 | 1 | 243 | 8.0 | 12.9 | 0.00 | 0.86 | 0.00 | 78 | 1016.5 |
| 20260507123049 | 0 | 244 | 8.0 | 16.1 | 0.00 | 0.86 | 0.00 | 79 | 1016.5 |
| 20260507121546 | 0 | 265 | 12.9 | 16.1 | 0.00 | 0.86 | 0.00 | 81 | 1016.2 |
| 20260507120044 | 0 | 257 | 12.9 | 16.1 | 0.00 | 0.86 | 0.00 | 81 | 1016.3 |
| 20260507114604 | 0 | 254 | 12.9 | 19.3 | 0.00 | 0.86 | 0.00 | 81 | 1016.3 |
| 20260507113043 | 0 | 260 | 12.9 | 16.1 | 0.00 | 0.86 | 0.00 | 81 | 1016.3 |
| 20260507111542 | 0 | 255 | 14.5 | 20.9 | 0.00 | 0.86 | 0.00 | 83 | 1016.4 |
| 20260507110044 | 0 | 257 | 12.9 | 17.7 | 0.00 | 0.86 | 0.00 | 86 | 1016.5 |
| 20260507104547 | 0 | 249 | 12.9 | 17.7 | 0.00 | 0.86 | 0.00 | 86 | 1016.7 |
| 20260507103036 | 0 | 238 | 16.1 | 20.9 | 0.00 | 0.86 | 0.00 | 86 | 1016.9 |
| 20260507101535 | 0 | 252 | 20.9 | 25.7 | 0.00 | 0.86 | 0.00 | 87 | 1016.9 |
| 20260507100037 | -1 | 254 | 12.9 | 17.7 | 0.00 | 0.86 | 0.00 | 90 | 1016.9 |
| 20260507094533 | -1 | 236 | 14.5 | 19.3 | 0.00 | 0.86 | 0.00 | 90 | 1017.1 |
| 20260507093036 | -1 | 240 | 14.5 | 19.3 | 0.00 | 0.86 | 0.00 | 91 | 1017.3 |
| 20260507091538 | -1 | 237 | 14.5 | 17.7 | 0.00 | 0.86 | 0.00 | 90 | 1017.4 |
| 20260507090027 | 0 | 248 | 16.1 | 19.3 | 0.00 | 0.86 | 0.00 | 90 | 1017.4 |
| 20260507084526 | 0 | 252 | 19.3 | 24.1 | 0.00 | 0.86 | 0.00 | 90 | 1017.5 |
| 20260507083024 | 0 | 249 | 22.5 | 29.0 | 0.00 | 0.86 | 0.00 | 90 | 1017.5 |
| 20260507081522 | 0 | 242 | 20.9 | 27.4 | 0.00 | 0.86 | 0.00 | 90 | 1017.7 |
| 20260507080019 | 0 | 248 | 22.5 | 30.6 | 0.00 | 0.86 | 0.00 | 90 | 1018.1 |
| 20260507074518 | 0 | 251 | 22.5 | 30.6 | 0.00 | 0.86 | 0.00 | 90 | 1018.2 |
| 20260507073015 | 0 | 240 | 22.5 | 29.0 | 0.00 | 0.86 | 0.00 | 91 | 1018.3 |
| 20260507071515 | 0 | 242 | 19.3 | 29.0 | 0.00 | 0.86 | 0.00 | 91 | 1018.6 |
| 20260507070013 | 0 | 246 | 24.1 | 29.0 | 0.00 | 0.86 | 0.00 | 92 | 1018.7 |
| 20260507064509 | 0 | 234 | 17.7 | 24.1 | 0.00 | 0.86 | 0.00 | 92 | 1018.8 |
| 20260507063020 | 0 | 243 | 16.1 | 20.9 | 0.00 | 0.86 | 0.00 | 93 | 1018.9 |
| 20260507061503 | 0 | 246 | 12.9 | 17.7 | 0.00 | 0.86 | 0.00 | 93 | 1018.8 |
| 20260507060004 | 0 | 234 | 12.9 | 17.7 | 0.00 | 0.86 | 0.00 | 93 | 1018.9 |
| 20260507054600 | 0 | 231 | 12.9 | 17.7 | 0.00 | 0.86 | 0.86 | 92 | 1018.9 |
| 20260507053100 | 0 | 236 | 16.1 | 20.9 | 0.00 | 0.86 | 0.86 | 92 | 1019.0 |
| 20260507051603 | 0 | 237 | 16.1 | 20.9 | 0.00 | 0.86 | 0.86 | 92 | 1019.0 |
| 20260507044559 | 0 | 234 | 12.9 | 19.3 | 0.00 | 0.86 | 0.86 | 91 | 1019.2 |
| 20260507043057 | 0 | 220 | 12.9 | 16.1 | 0.00 | 0.86 | 0.86 | 90 | 1019.2 |
| 20260507041557 | 0 | 207 | 11.3 | 16.1 | 0.00 | 0.86 | 0.86 | 89 | 1019.2 |
| 20260507040107 | 0 | 225 | 12.9 | 16.1 | 0.00 | 0.86 | 0.86 | 89 | 1019.4 |
| 20260507034559 | 0 | 218 | 9.7 | 14.5 | 0.00 | 0.97 | 0.86 | 88 | 1019.4 |
| 20260507033102 | 0 | 221 | 11.3 | 14.5 | 0.00 | 0.97 | 0.86 | 88 | 1019.2 |
| 20260507031604 | 0 | 199 | 9.7 | 11.3 | 0.00 | 0.97 | 0.86 | 87 | 1019.2 |
| 20260507030055 | 0 | 271 | 4.8 | 6.4 | 0.00 | 0.97 | 0.86 | 86 | 1019.2 |
| 20260507024555 | 0 | 271 | 4.8 | 8.0 | 0.00 | 1.02 | 0.86 | 84 | 1019.1 |
| 20260507023053 | 0 | 271 | 4.8 | 8.0 | 0.00 | 1.02 | 0.86 | 82 | 1019.0 |
| 20260507021553 | 1 | 271 | 6.4 | 8.0 | 0.00 | 1.02 | 0.86 | 81 | 1019.1 |
| 20260507020054 | 2 | 271 | 6.4 | 9.7 | 0.00 | 1.02 | 0.86 | 77 | 1018.9 |
| 20260507014556 | 3 | 284 | 4.8 | 8.0 | 0.00 | 1.12 | 0.86 | 74 | 1018.9 |
| 20260507013109 | 4 | 284 | 3.2 | 6.4 | 0.00 | 1.12 | 0.86 | 69 | 1018.9 |
| 20260507011551 | 4 | 284 | 3.2 | 4.8 | 0.00 | 1.12 | 0.86 | 69 | 1018.8 |
| 20260507004551 | 3 | 269 | 6.4 | 8.0 | 0.00 | 1.17 | 0.86 | 72 | 1018.6 |
| 20260507003049 | 3 | 269 | 8.0 | 14.5 | 0.00 | 1.17 | 0.86 | 72 | 1018.7 |
| 20260507001552 | 5 | 260 | 6.4 | 14.5 | 0.00 | 1.17 | 0.86 | 64 | 1018.6 |
| 20260507000047 | 5 | 65 | 1.6 | 6.4 | 0.00 | 1.17 | 0.86 | 68 | 1018.6 |
| 20260506234548 | 3 | 5 | 0.0 | 9.7 | 0.00 | 1.24 | 0.86 | 70 | 1018.7 |
| 20260506233100 | 3 | 360 | 4.8 | 11.3 | 0.00 | 1.24 | 0.86 | 72 | 1018.6 |
| 20260506231545 | 5 | 292 | 9.7 | 14.5 | 0.00 | 1.24 | 0.86 | 69 | 1018.6 |
| 20260506230041 | 4 | 30 | 4.8 | 11.3 | 0.00 | 1.24 | 0.86 | 78 | 1018.6 |
| 20260506224539 | 3 | 11 | 3.2 | 9.7 | 0.00 | 1.24 | 0.86 | 78 | 1018.6 |
| 20260506223037 | 3 | 71 | 3.2 | 11.3 | 0.00 | 1.24 | 0.86 | 81 | 1018.8 |
| 20260506221537 | 2 | 33 | 6.4 | 14.5 | 0.00 | 1.24 | 0.86 | 83 | 1018.9 |
| 20260506220034 | 2 | 20 | 8.0 | 14.5 | 0.00 | 1.24 | 0.86 | 85 | 1018.8 |
| 20260506214529 | 2 | 26 | 11.3 | 17.7 | 0.03 | 1.24 | 0.86 | 88 | 1018.9 |
| 20260506213028 | 2 | 42 | 12.9 | 17.7 | 0.03 | 1.24 | 0.86 | 92 | 1019.2 |
| 20260506211529 | 1 | 49 | 12.9 | 20.9 | 0.05 | 1.24 | 0.86 | 92 | 1019.3 |
| 20260506210032 | 1 | 20 | 12.9 | 20.9 | 0.08 | 1.24 | 0.86 | 93 | 1019.4 |
| 20260506204523 | 1 | 11 | 17.7 | 24.1 | 0.08 | 1.24 | 0.84 | 93 | 1019.4 |
| 20260506203021 | 1 | 12 | 19.3 | 25.7 | 0.10 | 1.24 | 0.84 | 94 | 1019.4 |
| 20260506201519 | 1 | 33 | 17.7 | 22.5 | 0.10 | 1.22 | 0.81 | 95 | 1019.4 |
| 20260506200032 | 0 | 5 | 14.5 | 22.5 | 0.13 | 1.19 | 0.79 | 95 | 1019.4 |
| 20260506194515 | 0 | 19 | 16.1 | 24.1 | 0.13 | 1.17 | 0.76 | 95 | 1019.3 |
| 20260506193014 | 0 | 15 | 16.1 | 22.5 | 0.13 | 1.14 | 0.71 | 95 | 1019.4 |
| 20260506191515 | 0 | 16 | 14.5 | 20.9 | 0.15 | 1.12 | 0.71 | 94 | 1019.3 |
| 20260506190014 | 0 | 360 | 14.5 | 20.9 | 0.15 | 1.07 | 0.66 | 95 | 1019.3 |
| 20260506184513 | 0 | 5 | 12.9 | 19.3 | 0.18 | 1.04 | 0.64 | 94 | 1019.3 |
| 20260506183012 | 0 | 18 | 12.9 | 19.3 | 0.23 | 1.02 | 0.61 | 95 | 1019.3 |
| 20260506181517 | 0 | 32 | 14.5 | 22.5 | 0.25 | 0.97 | 0.56 | 95 | 1019.3 |
| 20260506180017 | 0 | 44 | 17.7 | 24.1 | 0.28 | 0.91 | 0.51 | 95 | 1019.4 |
| 20260506174511 | 0 | 41 | 19.3 | 27.4 | 0.25 | 0.86 | 0.43 | 95 | 1019.2 |
| 20260506173009 | 0 | 29 | 17.7 | 29.0 | 0.20 | 0.79 | 0.36 | 95 | 1019.1 |
| 20260506171508 | 0 | 26 | 17.7 | 24.1 | 0.20 | 0.71 | 0.30 | 96 | 1019.2 |
| 20260506170007 | 0 | 21 | 17.7 | 22.5 | 0.15 | 0.66 | 0.23 | 96 | 1019.1 |
| 20260506164505 | 0 | 51 | 16.1 | 20.9 | 0.10 | 0.61 | 0.18 | 96 | 1019.1 |
| 20260506163002 | 0 | 40 | 12.9 | 22.5 | 0.10 | 0.58 | 0.15 | 96 | 1018.8 |
| 20260506161600 | 0 | 44 | 14.5 | 20.9 | 0.08 | 0.53 | 0.10 | 96 | 1018.7 |
| 20260506160108 | 0 | 51 | 17.7 | 25.7 | 0.05 | 0.51 | 0.08 | 96 | 1018.5 |